TimeCDT,TemperatureF,Dew PointF,Humidity,Sea Level PressureIn,VisibilityMPH,Wind Direction,Wind SpeedMPH,Gust SpeedMPH,PrecipitationIn,Events,Conditions,WindDirDegrees,DateUTC
12:53 AM,66.9,62.1,84,29.93,10.0,Calm,Calm,-,N/A,Thunderstorm,Mostly Cloudy,0,2013-07-23 05:53:00
1:25 AM,66.2,62.6,88,29.95,10.0,East,8.1,-,0.00,,Partly Cloudy,90,2013-07-23 06:25:00
1:53 AM,64.9,61.0,87,29.88,10.0,SE,16.1,-,0.00,,Clear,130,2013-07-23 06:53:00
2:53 AM,64.0,59.0,84,29.91,10.0,East,11.5,-,N/A,,Clear,100,2013-07-23 07:53:00
3:53 AM,62.1,59.0,90,29.98,10.0,NNE,5.8,-,N/A,,Clear,30,2013-07-23 08:53:00
4:53 AM,61.0,59.0,93,30.00,10.0,North,4.6,-,N/A,,Partly Cloudy,350,2013-07-23 09:53:00
5:53 AM,63.0,59.0,87,29.92,10.0,SSE,9.2,19.6,N/A,,Clear,150,2013-07-23 10:53:00
6:53 AM,61.0,59.0,93,29.89,10.0,East,11.5,-,N/A,,Clear,90,2013-07-23 11:53:00
7:53 AM,63.0,60.1,90,29.94,10.0,NE,11.5,17.3,N/A,,Partly Cloudy,50,2013-07-23 12:53:00
8:53 AM,64.0,61.0,90,29.96,10.0,East,10.4,-,N/A,,Clear,80,2013-07-23 13:53:00
9:53 AM,68.0,62.1,81,29.96,10.0,ESE,10.4,-,N/A,,Clear,110,2013-07-23 14:53:00
10:53 AM,73.0,63.0,71,29.99,10.0,ENE,8.1,-,N/A,,Clear,70,2013-07-23 15:53:00
11:53 AM,73.0,62.1,68,30.01,10.0,ENE,6.9,-,N/A,,Clear,60,2013-07-23 16:53:00
12:53 PM,75.0,62.1,64,30.01,10.0,East,10.4,-,N/A,,Scattered Clouds,90,2013-07-23 17:53:00
1:53 PM,77.0,63.0,62,30.01,10.0,ENE,6.9,-,N/A,,Scattered Clouds,60,2013-07-23 18:53:00
2:53 PM,75.0,64.0,69,30.01,10.0,NE,10.4,-,N/A,,Mostly Cloudy,50,2013-07-23 19:53:00
3:53 PM,75.9,64.0,67,30.01,10.0,ENE,8.1,-,N/A,,Mostly Cloudy,70,2013-07-23 20:53:00
4:53 PM,75.0,63.0,66,30.01,10.0,ENE,8.1,-,N/A,,Mostly Cloudy,70,2013-07-23 21:53:00
5:53 PM,75.0,62.1,64,30.00,10.0,ENE,8.1,-,N/A,,Partly Cloudy,60,2013-07-23 22:53:00
6:53 PM,75.0,60.1,60,30.00,10.0,East,6.9,-,N/A,,Clear,100,2013-07-23 23:53:00
7:53 PM,73.0,60.1,64,30.01,10.0,East,9.2,-,N/A,,Mostly Cloudy,100,2013-07-24 00:53:00
8:53 PM,69.1,60.1,73,30.02,10.0,ESE,4.6,-,N/A,,Clear,120,2013-07-24 01:53:00
9:53 PM,66.9,60.1,79,30.03,10.0,ESE,4.6,-,N/A,,Clear,110,2013-07-24 02:53:00
10:53 PM,64.9,60.1,84,30.04,10.0,ESE,4.6,-,N/A,,Clear,110,2013-07-24 03:53:00
11:53 PM,62.1,59.0,90,30.06,10.0,East,5.8,-,N/A,,Clear,100,2013-07-24 04:53:00